Location: Newark
(54.1978°N, 18.3264°E)
Time: 19:55:00
(UTC+00:00)

OTV 5 (USA 277) - Visible Passes

Search period start: 25 August 2019 00:00
Search period end: 04 September 2019 00:00
Orbit: 305 x 329 km, 54.5° (Epoch: 20 August)

Date Brightness Start Highest point End Pass type
(mag) Time Alt. Az. Time Alt. Az. Time Alt. Az.
25 Aug ? 19:46:31 10° SW 19:48:20 30° S 19:48:20 30° S visible
26 Aug ? 20:00:51 10° WSW 20:03:00 47° SSW 20:03:00 47° SSW visible
27 Aug ? 18:41:34 10° SSW 18:43:56 27° SSE 18:46:18 10° E visible
27 Aug ? 20:15:21 10° WSW 20:17:20 44° WSW 20:17:20 44° WSW visible
28 Aug ? 18:55:45 10° SW 18:58:23 47° SSE 19:00:36 13° E visible
28 Aug ? 20:29:56 10° W 20:31:29 30° W 20:31:29 30° W visible
29 Aug ? 19:10:11 10° WSW 19:12:53 74° SSE 19:14:38 19° E visible
29 Aug ? 20:44:31 10° W 20:45:31 20° W 20:45:31 20° W visible
30 Aug ? 19:24:44 10° W 19:27:26 85° NNW 19:28:34 31° E visible
30 Aug ? 20:59:06 10° W 20:59:26 13° W 20:59:26 13° W visible
31 Aug ? 19:39:20 10° W 19:42:01 80° N 19:42:28 58° ENE visible
01 Sep ? 18:19:33 10° WSW 18:22:16 86° S 18:24:58 10° E visible
01 Sep ? 19:53:54 10° W 19:56:19 67° W 19:56:19 67° W visible
02 Sep ? 18:34:08 10° W 18:36:50 81° N 18:39:17 12° E visible
02 Sep ? 20:08:30 10° W 20:10:09 32° W 20:10:09 32° W visible
03 Sep ? 18:48:43 10° W 18:51:26 84° N 18:53:07 20° E visible
03 Sep ? 20:23:06 10° W 20:23:59 18° W 20:23:59 18° W visible
